Weather Roundup
Issued by NWS

Home | Current Version | Previous Version | Graphics & Text | Print | Product List | Glossary Off
Versions: 1 2 3 4 5 6 7 8 9 10 11 12 13 14 15 16 17 18 19 20 21 22 23 24 25 26 27 28 29 30 31 32 33 34 35 36 37 38 39 40 41 42 43 44 45 46 47 48 49 50

000
NZUS93 KARX 252159
HRRWXR

CURRENT HOURLY OBSERVATIONS ACROSS
MUCH OF THE UPPER MISSISSIPPI VALLEY
NATIONAL WEATHER SERVICE LA CROSSE WI
500 PM CDT WED MAY 25 2016


...SOUTHEAST MINNESOTA...


CITY           SKY/WX    TMP DP  RH WIND       PRES   REMARKS
ROCHESTER      LGT RAIN  73  67  81 SW17      29.83F
ROCHESTER/MAYO MOCLDY    73  65  76 SW8G17    29.83S
WINONA         PTSUNNY   73  66  78 SW9       29.81F
AUSTIN         MOSUNNY   75  64  69 SW8       29.83S
ALBERT LEA     CLOUDY    77  61  57 SW7       29.81F
DODGE CENTER   MOSUNNY   70  70 100 SW16      29.82F
PRESTON        MOSUNNY   73  63  71 S14       29.85S
OWATONNA       CLOUDY    75  64  69 SW12      29.81F
FARIBAULT      PTSUNNY   75  66  73 S9        29.81F
$$

...ELSEWHERE IN MINNESOTA...


CITY           SKY/WX    TMP DP  RH WIND       PRES   REMARKS
MINNEAPOLIS    PTSUNNY   73  63  70 SE7       29.80F
INTNL FALLS    CLOUDY    67  53  61 E15G23    29.87F
DULUTH         LGT RAIN  50  48  93 E15       29.94R FOG
RED WING       CLOUDY    70  66  88 SE5       29.79F
REDWOOD FALLS  SUNNY     80  60  50 SW13      29.77S
MANKATO        CLOUDY    79  61  53 S7        29.80S
WORTHINGTON    MOSUNNY   77  61  57 W10       29.82F
FAIRMONT       MOSUNNY   81  45  28 W12       29.80S
$$

...SOUTHWEST WISCONSIN...


CITY           SKY/WX    TMP DP  RH WIND       PRES   REMARKS
LA CROSSE      PTSUNNY   77  68  73 S10       29.82R
PRAIRIE DU CHI CLOUDY    82  60  48 S8        29.81F
BOSCOBEL       PTSUNNY   79  67  66 S5        29.81F
LONE ROCK      NOT AVBL
PLATTEVILLE    CLOUDY    83  64  52 SW24G32   29.85S
FORT MC COY    CLOUDY    75  68  78 E5        29.83F
MAUSTON-NEW LI LGT RAIN  66  63  89 CALM      29.84F
VIROQUA        FAIR      80  65  61 SW14      29.84S
WIS DELLS      PTSUNNY   82  61  49 SE9       29.84S
$$

...ELSEWHERE IN WISCONSIN...


CITY           SKY/WX    TMP DP  RH WIND       PRES   REMARKS
MILWAUKEE      PTSUNNY   58  51  78 NE6       29.92F
MADISON        PTSUNNY   77  66  68 E10       29.84F
GREEN BAY      PTSUNNY   67  59  75 NE10      29.94S
EAU CLAIRE     HVY RAIN  65  63  93 NE9       29.81F FOG
BLACK RVR FLS  CLOUDY    74  73  98 E3        29.81F
MEDFORD        TSTM      67  65  94 E8        29.86F
WAUSAU         LGT RAIN  67  62  84 E8        29.89F
WIS RAPIDS     CLOUDY    67  63  87 SE9       29.87F
MARSHFIELD     CLOUDY    69  63  81 E14       29.84F
RICE LAKE      CLOUDY    64  61  89 E5        29.86F THUNDER
$$

...NORTHEAST IOWA...


CITY           SKY/WX    TMP DP  RH WIND       PRES   REMARKS
WATERLOO       PTSUNNY   81  60  48 SW14      29.83F
DUBUQUE        PTSUNNY   80  62  54 SW17      29.85F
DECORAH        PTSUNNY   75  64  69 SW14      29.85S
MASON CITY     CLOUDY    79  65  62 SW10      29.84F
CHARLES CITY   PTSUNNY   79  64  61 SW15      29.84F
OELWEIN        MOSUNNY   81  61  50 SW16G23   29.86S
$$

...ELSEWHERE IN IOWA...


CITY           SKY/WX    TMP DP  RH WIND       PRES   REMARKS
DES MOINES     MOSUNNY   80  62  54 S8        29.86S
IOWA CITY      PTSUNNY   82  58  43 S13       29.87S
FORT DODGE     MOSUNNY   81  63  54 SW9G16    29.83F
MARSHALLTOWN   MOSUNNY   79  61  53 S13       29.85S
CEDAR RAPIDS   CLOUDY    80  63  55 S16       29.85F
$$

...NORTHERN ILLINOIS...


CITY           SKY/WX    TMP DP  RH WIND       PRES   REMARKS
CHICAGO-OHARE  CLOUDY    82  58  43 S10       29.87F THUNDER
CHICAGO-MIDWAY CLOUDY    88  57  34 S8G18     29.87F THUNDER
MOLINE         MOSUNNY   86  58  38 SW14G21   29.85F
ROCKFORD       CLOUDY    76  68  76 SE17G23   29.87F
PEORIA         PTSUNNY   84  66  54 S18       29.86F
$$

NOTE: "FAIR" INDICATES FEW OR NO CLOUDS BELOW 12,000 FEET WITH NO
SIGNIFICANT WEATHER AND/OR OBSTRUCTIONS TO VISIBILITY. WIND
SPEEDS ARE IN MILES-PER-HOUR.




USA.gov is the U.S. government's official web portal to all federal, state and local government web resources and services.